Temp
26 25 27 31 28 23 29 33 36 33 34 36 35 33 32 31 30 25 25 26 26 24 22 22 22 22 21 22 22 22 22 21 22 21 21 21 21 21 21 22 22 22 22 21 21 21 21 21 21
26 29 31 31 28 25 30 35 31 35 35 36 35 33 30 29 29 25 26 26 25 24 23 22 22 22 22 22 22 22 22 21 22 22 22 21 21 22 21 22 22 21 21 21 21 21 21 21 21
27 31 31 29 24 24 26 35 36 36 36 36 34 34 30 28 30 29 27 26 25 25 24 22 22 22 22 22 22 22 22 21 22 21 22 21 22 22 21 21 21 21 21 21 21 21 21 21 22
31 32 32 31 27 24 25 35 35 35 36 36 35 31 31 29 29 28 26 25 24 24 23 22 22 21 21 21 21 22 23 22 22 23 23 21 22 22 21 21 21 21 21 21 21 21 21 22 22
32 33 31 30 30 31 28 35 35 31 35 35 34 29 28 28 28 28 27 25 24 24 23 22 22 22 22 22 22 22 22 22 22 22 22 22 22 21 21 21 21 21 21 21 22 21 22 22 23
30 30 28 29 30 31 34 36 34 33 36 35 34 30 28 27 28 27 27 26 26 24 24 22 21 21 22 21 22 22 22 22 22 22 22 22 22 21 21 21 21 21 21 22 22 22 23 23 23
33 31 29 30 26 28 24 30 32 31 32 34 34 30 28 27 28 28 28 28 26 26 25 23 22 21 21 21 22 22 22 21 22 23 22 22 22 22 21 21 21 21 22 23 23 23 23 24 24
33 25 28 30 28 29 29 32 32 31 27 35 35 31 28 27 28 27 27 26 25 25 25 25 22 22 21 21 22 21 21 22 22 23 22 22 22 22 22 23 22 22 22 23 24 24 24 25 25
28 24 27 30 30 29 30 31 33 34 33 35 34 33 30 28 27 27 26 26 26 25 25 25 24 22 23 22 21 21 21 21 22 23 22 23 23 23 23 22 24 23 23 24 25 25 25 25 26
26 23 27 32 33 30 31 28 30 31 31 33 32 30 29 29 28 28 28 27 25 23 26 25 24 23 23 23 21 21 21 22 23 23 25 23 23 24 24 23 24 24 25 25 26 26 26 25 26
32 27 33 34 33 31 33 32 33 31 29 29 32 31 31 29 29 29 28 27 27 27 27 25 24 24 24 23 22 22 22 23 23 23 24 23 23 25 25 25 24 25 26 26 25 25 27 26 28
30 28 35 34 33 34 32 32 32 31 28 30 33 32 32 29 29 28 27 27 27 27 26 25 25 25 24 23 23 23 22 22 23 23 23 22 24 26 26 26 26 26 26 25 27 26 27 28 28
32 33 35 34 34 34 33 32 26 28 28 32 34 33 33 31 30 29 29 28 26 25 25 26 25 24 24 24 24 23 23 22 23 24 23 24 26 26 27 27 27 27 27 27 25 27 25 27 26
35 35 35 35 35 34 33 32 29 24 30 34 34 33 34 30 31 29 28 28 26 25 25 25 24 24 23 24 24 24 21 22 24 24 25 25 26 26 27 27 27 27 27 27 28 29 27 24 27
37 35 35 26 34 34 34 32 31 30 32 33 33 34 34 34 32 30 28 28 27 26 25 24 24 24 23 23 24 24 24 22 23 23 24 25 25 26 26 27 27 27 27 27 28 28 27 27 29
36 36 30 28 33 34 33 31 29 30 32 32 33 34 33 33 33 32 31 29 26 26 25 24 25 24 22 23 22 23 23 23 21 22 23 25 24 25 26 27 27 26 27 28 21 25 26 24 26
32 32 33 33 35 35 34 31 30 28 32 32 31 32 33 33 32 32 32 31 29 26 25 25 24 24 22 22 22 22 22 23 22 22 23 24 24 25 25 26 27 27 28 27 25 23 23 20 27
33 33 35 35 35 35 34 33 34 32 33 32 30 28 32 33 33 32 31 31 30 28 27 26 25 24 22 22 22 21 22 22 23 23 24 24 24 24 25 25 25 27 28 26 26 27 20 22 27
37 37 35 37 36 35 35 35 34 27 33 33 31 32 33 33 33 32 31 31 30 28 27 26 24 24 22 21 22 22 23 23 23 23 24 24 24 24 24 25 26 27 27 26 26 27 26 25 23
37 36 36 37 37 36 35 35 36 34 35 34 32 32 33 32 32 32 32 31 30 28 27 26 24 23 22 22 22 23 24 24 24 24 24 24 24 24 24 25 25 26 27 27 27 27 27 24 24
37 35 36 36 37 37 36 35 33 34 33 35 35 33 33 33 31 32 32 32 31 28 27 25 25 23 23 24 24 24 24 25 24 24 24 24 24 24 24 25 25 25 26 26 26 26 27 26 29
36 38 37 36 35 34 34 31 33 29 26 28 36 35 33 33 32 33 33 33 32 28 27 25 25 24 24 24 25 25 25 25 25 25 24 25 25 24 24 25 25 25 25 26 26 27 27 27 27
36 38 37 36 35 35 36 34 33 27 26 32 36 36 36 35 35 34 32 33 33 29 27 25 24 23 24 24 25 25 25 26 26 25 26 25 25 25 24 24 24 24 25 26 26 26 26 26 26
38 37 36 36 35 33 36 37 34 35 36 35 37 37 37 36 35 34 32 33 32 30 28 26 24 23 24 24 24 25 25 26 27 27 27 27 25 24 25 25 24 24 24 25 26 26 26 26 26
37 35 33 33 34 34 36 35 37 37 37 37 38 38 38 37 36 35 33 33 33 31 29 27 25 24 24 23 24 24 25 25 25 27 27 27 26 26 25 25 24 24 24 24 25 25 25 25 25
37 36 34 33 34 35 34 35 38 40 40 40 40 39 39 38 37 35 32 34 33 31 29 28 25 24 24 23 23 24 24 25 25 26 27 27 27 27 25 25 25 24 24 25 24 24 25 25 25
36 35 37 36 37 36 37 38 40 40 39 39 39 39 38 38 38 37 34 34 33 31 30 29 26 25 24 24 23 23 23 24 25 26 26 27 26 26 26 25 24 24 24 25 24 24 24 25 25
37 38 36 36 33 33 35 36 35 37 38 38 39 38 38 38 37 37 36 35 33 32 30 29 26 25 25 25 24 23 23 23 24 26 26 26 26 27 25 23 23 24 23 24 24 24 25 25 25
37 36 36 37 36 34 34 35 38 37 38 38 38 39 38 38 37 37 36 35 34 33 31 30 27 26 26 26 25 25 24 24 24 24 25 26 26 25 24 24 25 26 24 24 24 24 25 25 25
38 37 37 35 34 35 35 35 39 39 39 39 38 38 38 38 37 37 36 34 33 32 30 30 29 27 26 26 26 25 24 24 24 24 25 25 25 25 25 24 24 25 24 24 24 24 25 25 24
Height
762 760 761 758 786 795 779 760 729 750 746 733 736 751 761 761 773 807 793 795 799 805 806 808 810 813 816 818 819 820 823 824 826 827 828 830 831 832 833 834 835 835 835 835 835 836 837 838 835
763 760 759 759 790 812 780 742 763 738 735 733 742 753 765 776 771 788 793 796 801 806 805 809 813 814 818 820 822 824 825 827 828 829 830 831 833 833 835 836 836 837 837 836 837 837 837 838 836
761 758 763 772 800 812 797 742 739 734 729 734 746 746 765 781 776 783 792 797 802 805 807 809 814 816 820 822 824 825 827 828 829 831 832 833 835 835 837 838 838 839 838 838 837 836 837 838 839
757 753 754 774 792 797 795 742 740 739 736 737 744 769 768 776 781 785 793 800 803 807 808 812 815 819 821 824 826 828 829 830 831 833 834 835 836 838 839 839 840 840 839 838 835 835 838 841 842
757 752 773 779 779 770 768 740 740 754 741 745 750 775 780 781 783 789 795 800 803 807 810 813 817 820 822 824 828 830 831 832 833 834 835 835 838 839 840 841 841 841 839 836 833 835 839 840 839
765 760 790 790 780 766 748 739 744 749 738 745 749 768 781 784 787 790 795 800 802 807 812 815 818 821 823 824 828 830 832 832 833 834 835 837 839 840 840 841 841 840 838 835 834 836 837 835 837
759 768 786 779 791 782 784 752 758 760 756 751 746 773 781 786 788 792 796 799 803 807 812 816 819 822 825 826 828 830 832 833 833 834 835 837 839 841 841 840 839 839 839 838 836 838 837 834 835
758 786 788 773 785 786 772 757 753 758 771 743 743 768 783 785 788 793 796 802 806 808 812 816 819 822 824 827 828 830 832 833 834 835 836 837 839 840 839 838 839 842 841 839 839 841 839 839 837
764 805 800 777 773 775 761 763 751 744 753 746 746 748 769 781 789 794 799 801 806 810 812 816 819 821 824 826 829 830 832 833 833 834 834 836 838 838 837 837 841 842 842 841 842 845 844 842 840
776 805 793 756 754 766 757 767 764 759 765 759 759 768 775 783 789 793 795 801 806 809 811 814 818 819 824 826 829 830 830 830 829 831 835 840 841 839 836 838 841 842 842 839 841 844 845 844 840
760 790 755 752 751 755 753 755 752 762 780 770 765 768 773 782 787 791 796 799 802 805 809 814 816 819 822 824 827 829 828 828 829 834 843 842 841 841 837 838 840 842 840 841 845 844 843 839 839
773 772 751 751 752 750 758 755 760 766 775 763 758 765 769 780 785 792 796 800 802 806 810 814 816 819 821 823 825 826 827 829 832 840 847 840 842 842 838 837 839 842 841 844 839 837 840 838 840
758 755 747 749 750 750 753 763 778 776 767 757 758 762 765 771 780 787 791 796 802 806 811 812 816 819 820 822 824 827 830 832 835 841 848 849 845 840 839 838 839 842 841 838 836 834 833 833 838
746 746 746 749 748 748 757 764 769 782 762 755 760 762 762 772 774 784 792 793 800 805 808 811 814 818 820 820 824 826 828 827 832 835 840 843 842 841 838 838 838 839 842 838 838 837 836 829 839
734 753 747 773 751 751 751 769 770 766 764 761 761 759 759 763 772 777 785 791 795 802 806 810 812 816 817 820 824 826 829 826 830 835 839 840 840 842 841 839 836 837 839 841 844 843 831 834 839
748 745 781 772 751 744 755 782 768 762 760 764 759 757 760 763 768 774 780 785 792 799 803 807 811 813 817 820 824 828 830 831 830 832 840 841 841 844 842 839 834 835 836 843 848 845 835 846 838
764 780 770 761 742 746 752 770 759 759 754 762 762 761 761 763 767 774 778 783 789 795 801 806 810 812 815 820 825 829 833 835 837 839 842 841 842 844 841 837 834 832 835 839 846 845 853 853 837
777 772 756 753 748 742 751 752 744 749 757 756 762 766 761 762 763 770 776 780 787 793 799 803 807 810 814 818 824 828 834 836 838 839 840 840 843 842 841 838 833 833 837 843 840 839 854 845 838
739 745 754 741 733 746 749 742 740 758 747 750 752 754 755 757 760 766 772 778 783 790 797 803 806 809 813 816 821 825 828 834 837 839 840 839 838 839 840 837 834 835 837 843 843 846 844 838 847
739 753 754 736 726 741 745 746 730 733 733 737 748 749 748 754 755 762 767 772 778 785 791 800 804 808 811 814 817 821 824 827 830 833 835 835 835 836 837 836 836 837 837 839 844 843 837 843 843
742 754 751 748 732 730 738 745 746 731 736 726 730 738 741 747 754 758 763 766 773 781 788 794 801 806 809 811 814 818 822 824 827 828 831 831 831 832 834 835 836 838 838 838 840 841 840 837 833
753 729 732 741 753 771 741 782 744 752 755 742 724 730 736 741 747 750 755 761 767 775 783 790 797 803 806 810 812 814 817 819 822 823 826 827 829 830 831 834 836 838 840 840 841 841 840 842 842
746 727 731 738 751 749 739 758 750 753 770 732 719 720 720 724 731 740 748 756 760 768 777 785 793 799 803 806 810 813 814 816 817 820 822 826 827 829 831 832 835 837 840 841 842 842 841 841 840
723 735 737 736 745 770 734 731 747 732 722 721 709 707 710 713 722 732 742 748 754 764 772 781 788 795 800 804 806 810 811 812 814 817 819 822 827 830 831 832 833 835 837 839 840 842 843 841 839
730 747 775 776 768 763 731 745 718 705 701 701 698 698 699 704 714 724 734 741 748 756 766 776 784 792 796 801 804 806 808 810 812 814 816 821 824 827 829 832 834 835 836 838 837 837 841 841 840
730 739 763 781 765 754 738 747 714 684 681 682 684 687 691 696 703 715 729 735 743 751 760 770 780 788 793 797 800 803 805 807 810 812 814 818 822 827 832 834 835 836 835 834 838 837 836 838 839
732 745 723 743 730 744 725 707 685 679 686 684 685 687 692 694 698 707 718 728 737 746 755 764 774 784 790 793 797 800 802 804 807 809 812 816 821 825 827 832 838 840 838 834 834 836 836 838 839
721 711 744 734 774 776 741 733 730 706 699 690 689 689 690 692 696 701 711 721 731 740 750 760 769 777 784 789 793 796 799 802 805 808 811 814 818 822 824 828 835 836 836 835 834 834 835 834 836
719 731 727 722 730 755 759 740 696 698 693 695 691 683 686 691 694 698 706 716 726 736 745 756 764 772 779 783 788 792 795 798 802 804 807 810 813 819 822 824 825 822 827 832 833 833 832 831 833
697 711 715 743 752 736 738 735 680 683 682 685 688 685 684 687 692 696 702 712 722 732 742 751 759 767 773 777 782 786 789 794 797 800 803 806 808 813 819 820 820 819 822 828 827 828 829 830 830
Wind_Speed
10 10 11 11 1 4 5 6 14 16 9 17 13 13 17 14 6 8 19 17 23 20 19 17 15 15 14 14 14 13 14 14 14 13 14 13 13 14 15 14 14 14 14 14 14 14 13 12 10
10 15 10 5 1 1 4 16 12 11 16 12 15 15 13 17 18 19 22 21 23 20 20 17 16 15 14 13 13 12 13 13 12 12 13 13 13 14 15 14 14 14 15 14 13 13 13 11 10
10 12 6 3 4 6 7 11 13 12 6 10 9 11 8 13 17 22 25 23 20 17 22 19 16 14 13 12 12 11 11 11 10 10 11 11 12 13 13 13 14 14 15 14 11 10 9 8 7
9 6 5 6 7 11 16 11 10 12 11 9 13 12 9 20 11 25 26 22 18 19 20 19 16 14 13 12 10 9 8 9 9 9 9 10 11 12 13 12 13 13 12 10 9 7 7 7 5
9 5 6 6 5 11 15 12 14 9 5 13 16 16 11 13 18 26 24 21 21 17 18 16 15 13 12 12 8 9 8 8 7 8 8 8 9 10 11 12 12 11 10 8 7 6 7 9 7
3 1 4 4 5 12 9 4 9 3 8 9 10 17 9 18 17 26 21 21 22 18 18 15 14 12 10 11 10 11 9 8 10 10 10 9 8 9 11 10 11 10 8 7 6 6 8 9 9
7 4 6 2 4 4 14 23 6 10 11 11 9 11 11 17 16 25 21 20 18 21 20 15 13 13 12 12 11 12 9 9 11 12 10 10 9 9 9 9 10 9 7 6 4 5 6 7 7
5 4 5 2 3 3 8 8 12 10 10 3 4 8 16 18 16 19 17 18 24 19 16 17 13 15 14 13 12 12 12 11 14 15 12 10 9 8 7 8 9 8 6 4 2 4 4 4 4
8 3 7 2 2 2 4 1 6 6 9 11 11 18 23 26 22 20 22 18 19 16 19 17 16 20 17 15 13 13 14 13 14 14 12 12 12 10 6 8 8 7 5 3 2 2 1 1 2
6 5 8 8 6 4 4 10 3 4 12 7 19 23 27 23 21 18 17 19 18 16 17 14 18 21 17 15 14 16 17 17 18 17 17 12 7 12 11 8 7 7 4 5 3 1 2 7 7
7 4 6 11 7 15 3 2 7 7 6 8 16 16 25 24 21 20 21 17 16 19 19 16 18 18 19 17 16 19 18 20 20 17 13 9 11 9 6 6 7 5 4 4 8 13 5 7 2
7 15 6 6 4 2 4 3 3 8 3 12 16 18 16 23 18 19 13 5 9 17 18 17 14 14 18 17 20 21 24 20 17 17 17 17 12 16 14 7 10 8 7 2 3 9 2 3 5
11 11 2 2 2 3 3 3 4 7 20 14 15 15 16 19 21 19 21 17 22 23 21 16 17 16 14 16 18 14 20 15 13 17 15 13 11 13 13 10 9 9 9 9 13 6 6 8 6
10 2 3 3 2 4 5 5 7 7 20 7 14 14 12 24 19 24 14 18 23 22 18 16 17 17 14 15 12 11 21 22 16 16 9 9 7 6 3 8 6 5 7 9 3 6 11 14 4
5 9 10 19 13 3 1 4 2 12 8 10 12 12 12 13 23 28 27 22 26 21 20 17 21 15 14 15 10 9 5 10 12 12 10 9 3 11 5 8 10 7 5 9 3 8 16 5 5
11 14 5 10 14 7 4 1 7 10 13 13 14 12 11 10 16 17 19 27 30 26 27 22 18 18 15 16 14 9 9 8 13 15 5 11 5 9 7 9 6 8 7 7 26 13 21 24 16
9 12 6 14 6 1 5 4 14 20 17 15 7 5 12 9 17 17 16 17 24 27 27 20 24 21 19 17 15 13 13 11 18 15 11 11 8 9 8 7 5 4 7 9 9 20 17 26 15
5 17 13 3 10 3 7 6 11 8 15 15 16 16 12 15 16 22 19 22 17 23 15 16 22 19 19 19 16 14 17 12 17 12 9 10 10 7 8 7 2 1 8 10 5 17 20 1 8
9 11 9 11 8 2 10 11 16 18 20 14 16 16 17 18 14 22 24 19 22 21 20 16 22 20 18 20 18 16 16 16 18 14 12 11 9 7 8 5 6 6 10 10 7 7 16 4 14
11 11 12 13 1 4 9 13 13 20 16 13 19 19 19 16 13 22 23 27 25 24 24 20 20 20 19 20 22 18 17 17 17 16 12 10 10 8 8 10 6 8 10 9 3 6 8 8 10
12 12 14 15 6 12 14 16 1 6 8 12 17 22 20 19 12 17 19 24 25 28 26 25 21 23 20 20 19 20 14 15 16 18 17 16 12 12 14 11 13 4 8 9 4 4 5 8 8
16 15 14 12 7 13 0 6 12 6 1 24 17 17 26 21 23 21 21 22 27 30 28 28 25 24 22 21 21 20 16 13 15 17 19 19 18 14 13 13 12 13 7 9 7 5 5 2 5
14 13 16 5 11 15 19 7 10 19 18 23 16 19 19 23 22 20 16 26 27 34 31 30 28 26 24 21 20 22 19 21 23 23 19 22 20 19 17 15 16 15 15 10 10 6 2 4 8
15 15 14 12 13 14 19 15 10 3 11 11 18 19 20 20 21 20 31 30 28 33 32 31 30 29 26 26 20 22 23 16 17 19 18 21 19 20 18 17 17 17 16 14 11 10 7 6 8
15 14 10 11 12 12 7 6 6 14 16 20 11 9 18 17 22 18 14 21 25 32 32 31 31 28 27 28 26 22 22 21 17 18 20 21 21 20 21 19 17 16 15 16 15 12 10 6 6
15 16 12 15 10 7 10 13 5 9 6 7 4 10 8 16 18 22 20 23 25 29 33 31 31 28 29 29 28 24 27 19 18 15 17 19 14 12 3 18 19 17 15 13 14 14 14 11 11
16 11 17 20 18 14 12 13 0 7 6 7 13 12 8 11 16 19 24 29 29 30 31 30 33 29 29 29 27 27 25 24 19 19 21 16 13 10 12 6 16 15 16 13 12 15 15 14 13
14 15 14 11 13 13 12 7 10 9 5 7 0 12 12 12 12 18 17 23 30 31 32 32 33 31 30 28 28 26 25 25 23 22 19 20 18 17 15 19 23 15 18 18 16 17 18 16 16
11 14 16 17 11 11 8 1 1 11 7 3 5 2 13 11 11 13 16 25 28 30 32 31 32 31 29 29 28 26 26 26 27 21 21 21 20 12 20 24 22 18 26 23 20 20 19 13 18
14 16 18 12 14 10 10 9 5 3 8 10 2 3 8 10 9 9 16 21 23 26 30 30 30 31 30 30 27 28 26 25 25 25 23 22 21 20 17 16 19 22 25 26 23 22 24 19 16
Wind_Direction
249 248 244 274 329 352 259 192 89 82 48 64 68 89 80 55 32 148 143 131 130 139 134 128 128 124 123 118 117 116 110 101 97 98 99 98 103 108 108 105 104 105 104 104 106 104 99 99 101
263 270 266 277 162 249 269 87 123 87 97 103 69 95 74 61 94 132 153 144 134 138 131 129 130 127 125 119 115 114 111 107 105 102 100 102 103 105 104 106 106 108 108 108 110 108 105 102 102
259 270 283 218 58 354 291 91 79 96 112 67 87 74 63 94 113 136 135 138 133 140 134 134 132 128 121 115 114 114 115 112 111 104 102 104 104 104 106 111 108 108 108 110 113 109 111 105 96
273 256 231 250 157 212 251 111 99 57 70 51 69 88 71 113 120 136 144 143 132 117 123 134 137 130 130 119 121 118 117 119 120 119 112 111 110 115 115 113 111 113 111 116 114 113 106 90 88
250 269 287 306 17 181 192 92 72 39 55 63 96 89 89 78 124 142 145 148 148 132 134 136 138 138 135 123 123 126 125 132 144 133 121 115 120 117 116 115 119 120 120 126 120 110 89 86 103
230 34 325 305 312 316 20 54 117 149 58 130 108 105 83 112 149 137 150 156 152 145 144 137 137 133 125 122 138 130 123 138 159 155 131 121 128 124 125 124 128 129 137 133 133 111 94 106 105
323 348 269 21 348 328 17 301 33 39 355 59 114 98 115 131 158 154 159 171 157 143 141 144 140 139 136 134 136 128 136 147 157 150 145 131 136 134 130 131 140 148 147 147 148 109 115 118 112
38 25 316 176 213 99 190 300 133 90 331 46 337 143 142 153 154 124 127 124 128 135 148 147 149 146 137 135 137 136 141 135 138 149 147 141 146 147 145 148 154 156 156 175 172 120 127 113 119
101 40 291 61 306 279 232 9 20 94 275 56 53 108 130 143 140 151 137 141 143 158 159 157 157 147 151 147 130 136 140 144 143 158 155 158 147 153 152 186 171 165 175 193 224 107 188 201 303
107 129 251 289 128 59 226 129 248 355 26 74 95 114 131 142 151 158 162 146 141 159 153 145 167 151 147 150 146 149 152 154 158 166 158 166 173 182 169 173 179 175 182 216 238 203 306 290 285
91 300 111 45 16 158 195 159 153 147 78 254 124 129 141 151 158 169 168 177 179 171 158 153 166 154 152 151 158 161 165 165 169 164 155 189 201 159 165 173 166 164 200 266 302 295 339 283 342
92 248 13 33 48 18 77 68 230 72 6 263 126 145 153 150 160 172 170 143 173 159 154 165 160 153 166 163 172 169 171 176 182 173 156 196 224 206 177 171 174 178 223 101 319 268 241 270 81
61 290 99 61 111 132 119 33 59 82 181 229 139 158 169 149 162 172 177 159 144 161 169 171 163 174 166 176 181 198 184 188 173 173 178 205 204 211 194 159 170 205 181 212 198 245 87 242 173
182 310 244 162 134 194 197 173 110 255 266 170 148 171 176 146 168 164 186 172 161 161 165 168 161 182 176 190 182 181 171 181 172 172 196 207 224 196 141 170 213 191 187 273 272 254 232 97 201
293 246 210 48 309 226 163 174 179 176 275 187 180 177 175 164 144 167 177 175 167 171 167 171 182 181 189 183 177 179 148 154 160 188 167 194 173 199 185 215 220 186 207 250 220 295 301 268 204
245 246 65 194 238 124 229 67 193 206 195 207 193 177 166 162 153 148 165 167 174 169 173 179 183 179 186 188 178 172 143 129 129 150 197 207 177 202 214 230 249 211 219 255 72 26 311 313 323
10 337 250 169 158 220 207 172 194 213 190 205 195 260 170 188 147 167 168 167 151 157 166 172 175 176 179 181 171 169 159 154 132 174 200 206 173 210 223 270 240 180 280 346 23 10 318 321 9
251 237 227 116 163 157 273 209 199 173 206 193 173 221 197 189 172 165 174 158 160 146 159 164 174 181 181 172 167 168 159 160 166 167 169 195 198 206 244 280 107 196 267 87 87 205 193 183 107
243 316 316 299 126 286 273 287 173 172 217 195 170 216 194 197 189 181 172 164 162 155 159 170 172 176 179 171 172 175 171 172 176 177 178 186 184 207 248 266 270 267 292 35 360 344 16 346 182
299 306 272 265 164 247 263 268 275 186 193 194 190 202 201 198 197 171 177 177 168 162 160 168 172 174 180 176 182 178 186 188 188 188 193 202 204 190 229 243 278 245 276 304 287 16 335 25 321
258 265 285 290 324 309 292 256 71 272 333 213 200 198 201 198 185 183 185 187 170 161 163 165 176 173 178 180 184 188 191 188 193 199 205 205 197 212 219 228 240 255 256 291 284 297 302 39 3
277 269 246 252 297 280 295 270 204 146 223 275 197 204 190 197 197 192 193 195 180 163 166 166 174 177 191 185 184 190 189 194 202 203 211 209 206 214 235 212 231 234 223 261 274 304 268 0 225
270 277 289 298 289 278 264 234 123 151 220 228 194 198 210 188 189 196 178 200 186 166 167 167 172 178 187 193 188 187 198 199 208 206 211 214 204 208 218 230 224 230 230 233 260 266 296 282 321
255 276 274 254 258 261 258 275 162 179 206 167 198 207 195 199 187 194 190 194 186 164 165 167 172 181 188 195 192 185 208 216 212 203 198 199 193 207 212 226 236 237 232 229 227 241 232 255 263
246 237 252 244 238 250 42 281 334 162 178 195 176 182 187 190 182 185 175 179 185 164 164 167 172 182 188 191 199 196 208 224 230 213 207 196 199 200 203 211 230 232 237 239 235 230 223 219 246
242 228 239 253 281 308 226 259 225 161 153 243 201 206 203 183 188 174 182 200 181 164 164 168 173 183 188 189 199 202 207 219 223 227 215 204 220 233 79 218 216 228 245 260 236 226 232 231 241
263 222 257 276 292 288 290 296 235 225 136 219 225 137 173 186 190 182 180 189 176 168 169 171 174 183 189 193 198 203 206 212 219 222 218 225 229 261 233 244 243 242 232 244 223 229 232 232 240
232 271 237 228 262 270 272 295 309 84 156 84 10 168 174 178 196 179 183 179 173 174 172 175 175 182 190 194 200 204 207 212 219 226 226 219 228 230 216 209 220 245 258 239 233 235 243 234 239
242 225 258 277 287 298 294 250 31 168 160 160 250 157 160 173 189 188 179 182 177 176 170 178 175 183 190 196 197 204 205 210 221 228 226 232 231 190 187 197 218 243 241 239 232 238 250 248 241
213 255 218 241 250 263 282 276 18 184 186 184 148 147 123 162 183 207 172 170 167 167 170 179 179 184 194 198 196 200 206 215 214 219 226 227 230 226 210 203 207 221 222 232 223 229 238 242 232